Weather History for Ft Pierce, FL

Change the Weather History Date:

Friday, July 12, 2013

  Actual Average Record
Temperature  
Mean Temperature 80 °F -  
Max Temperature 89 °F 91 °F 98 °F (1969)
Min Temperature 70 °F 72 °F 68 °F (1956)
Cooling Degree Days 14    
Growing Degree Days 30 (Base 50)    
Moisture  
Dew Point 71 °F    
Average Humidity 80    
Maximum Humidity 93    
Minimum Humidity 53    
Precipitation  
Precipitation 0.70 in - - ()
Sea Level Pressure  
Sea Level Pressure 29.94 in    
Wind  
Wind Speed 3 mph (South)    
Max Wind Speed 17 mph    
Max Gust Speed 25 mph    
Visibility 9 miles    
Events Rain , Thunderstorm    
Averages and records for this station are not official NWS values.
T = Trace of Precipitation, MM = Missing Value Source: NWS Daily Summary

Daily Weather History Graph

Daily Weather History Graph

Search for Another Location

Airport:

Trip Planner

Search our weather history database for the weather conditions in past years. The results will help you decide how hot, cold, wet, or windy it might be!

Date:

Astronomy

Jul. 12, 2013 Rise Set
Actual Time 6:34 AM EDT 8:19 PM EDT
Civil Twilight 6:08 AM EDT 8:45 PM EDT
Nautical Twilight 5:37 AM EDT 9:17 PM EDT
Astronomical Twilight 5:03 AM EDT 9:50 PM EDT
Moon 10:23 AM EDT (7/12) 10:58 PM EDT (7/12)
Length of Visible Light 14h 37m
Length of Day
13h 44m
Waxing Crescent, 17% of the Moon is Illuminated
Jul 12
Waxing Crescent
Jul 15
First Quarter
Jul 22
Full
Jul 29
Last Quarter
Aug 6
New

Hourly Weather History & Observations

Time (EDT) Temp. Heat Index Dew Point Humidity Pressure Visibility Wind Dir Wind Speed Gust Speed Precip Events Conditions
12:53 AM 72.0 °F - 70.0 °F 93% 29.98 in 8.0 mi Calm Calm - N/A   Clear
1:53 AM 71.1 °F - 69.1 °F 93% 29.96 in 9.0 mi Calm Calm - N/A   Clear
2:53 AM 71.1 °F - 69.1 °F 93% 29.95 in 10.0 mi Calm Calm - N/A   Clear
3:53 AM 70.0 °F - 68.0 °F 93% 29.94 in 10.0 mi Calm Calm - N/A   Clear
4:53 AM 70.0 °F - 68.0 °F 93% 29.94 in 10.0 mi Calm Calm - N/A   Clear
5:53 AM 70.0 °F - 68.0 °F 93% 29.94 in 10.0 mi Calm Calm - N/A   Clear
6:53 AM 70.0 °F - 68.0 °F 93% 29.95 in 10.0 mi Calm Calm - N/A   Clear
7:53 AM 75.0 °F - 72.0 °F 90% 29.95 in 10.0 mi Calm Calm - N/A   Clear
8:53 AM 80.1 °F 83.8 °F 72.0 °F 76% 29.96 in 10.0 mi Calm Calm - N/A   Clear
9:53 AM 82.9 °F 88.8 °F 73.0 °F 72% 29.97 in 10.0 mi SW 3.5 mph - N/A   Clear
10:53 AM 84.9 °F 91.4 °F 73.0 °F 67% 29.97 in 10.0 mi Variable 3.5 mph - N/A   Clear
11:53 AM 87.1 °F 93.6 °F 72.0 °F 61% 29.96 in 10.0 mi SW 4.6 mph - N/A   Scattered Clouds
12:53 PM 89.1 °F 94.1 °F 70.0 °F 53% 29.95 in 10.0 mi SSW 8.1 mph - N/A   Scattered Clouds
1:19 PM 87.8 °F 95.6 °F 73.4 °F 62% 29.94 in 10.0 mi SW 5.8 mph - N/A   Mostly Cloudy
1:53 PM 86.0 °F 93.8 °F 73.9 °F 67% 29.92 in 10.0 mi ESE 11.5 mph - N/A   Mostly Cloudy
2:00 PM 86.0 °F 93.4 °F 73.4 °F 66% 29.92 in 10.0 mi East 11.5 mph - N/A   Mostly Cloudy
2:53 PM 89.1 °F 98.0 °F 73.9 °F 61% 29.91 in 10.0 mi ESE 10.4 mph - N/A   Mostly Cloudy
3:53 PM 87.1 °F 94.5 °F 73.0 °F 63% 29.91 in 10.0 mi SE 13.8 mph - N/A   Mostly Cloudy
4:53 PM 81.0 °F 85.2 °F 72.0 °F 74% 29.93 in 3.0 mi NW 16.1 mph 25.3 mph 0.03 in Rain Rain
4:55 PM 78.8 °F - 71.6 °F 78% 29.93 in 1.2 mi NW 17.3 mph 25.3 mph 0.09 in Rain Heavy Rain
4:57 PM 75.2 °F - 69.8 °F 83% 29.93 in 0.5 mi NNW 13.8 mph 25.3 mph 0.27 in Rain Heavy Rain
5:01 PM 75.2 °F - 71.6 °F 89% 29.93 in 1.0 mi North 10.4 mph 25.3 mph 0.53 in Rain , Thunderstorm Heavy Thunderstorms and Rain
5:21 PM 77.0 °F - 71.6 °F 83% 29.94 in 7.0 mi ENE 6.9 mph - 0.66 in Rain , Thunderstorm Thunderstorms and Rain
5:53 PM 77.0 °F - 71.1 °F 82% 29.94 in 10.0 mi East 3.5 mph - 0.67 in Thunderstorm Thunderstorm
6:00 PM 75.2 °F - 71.6 °F 89% 29.94 in 10.0 mi Calm Calm - N/A Thunderstorm Thunderstorm
6:17 PM 75.2 °F - 71.6 °F 89% 29.93 in 10.0 mi Calm Calm - N/A   Partly Cloudy
6:53 PM 78.1 °F - 73.0 °F 84% 29.94 in 10.0 mi Calm Calm - N/A   Clear
7:53 PM 78.1 °F - 73.0 °F 84% 29.93 in 10.0 mi Calm Calm - N/A   Clear
8:53 PM 77.0 °F - 73.9 °F 90% 29.94 in 10.0 mi Calm Calm - N/A   Clear
9:53 PM 75.9 °F - 71.1 °F 85% 29.96 in 10.0 mi South 3.5 mph - N/A   Clear
10:53 PM 75.9 °F - 71.1 °F 85% 29.97 in 10.0 mi SSW 4.6 mph - N/A   Scattered Clouds
11:53 PM 75.0 °F - 71.1 °F 87% 29.97 in 10.0 mi SW 4.6 mph - N/A   Clear